Location: Cazarilh
(42.9578°N, 0.5819°E)
Time: 23:50:37
(UTC+00:00)

CZ-4C R/B - Pass Details

Date: 11 December 2019
Orbit: 647 x 1355 km, 63.4° (Epoch: 18 January)

Event Time Altitude Azimuth Distance (km) Brightness Sun altitude
Exits shadow 04:21:28 77° 241° (WSW) 1,280 2.8 -31.4°
Maximum altitude 04:21:31 77° 237° (WSW) 1,281 2.8 -31.4°
Drops below altitude 10° 04:29:49 10° 153° (SSE) 3,369 5.6 -29.9°
Sets 04:32:46 0° 152° (SSE) 4,363 6.3 -29.4°
